N7DTY Weather Reports


time (UTC)temp
C
wind
direction
speed
KPH
gust
KPH
rain 1hr
cm
rain 24hr
cm
rain mn
cm
humidity
%
barometer
mb
20260510021502 18 340 0.0 4.8 0.00 0.00 0.00 61 1015.7
20260510020101 18 348 3.2 8.0 0.00 0.00 0.00 58 1015.8
20260510014615 18 23 1.6 4.8 0.00 0.00 0.00 61 1016.1
20260510013104 18 22 0.0 4.8 0.00 0.00 0.00 61 1016.5
20260510011554 18 24 0.0 6.4 0.00 0.00 0.00 63 1016.6
20260510010053 18 24 1.6 6.4 0.00 0.00 0.00 59 1016.8
20260510004555 18 340 3.2 8.0 0.00 0.00 0.00 57 1016.9
20260510003052 18 336 1.6 6.4 0.00 0.00 0.00 61 1017.0
20260510001548 19 355 1.6 8.0 0.00 0.00 0.00 56 1017.3
20260510000046 19 160 0.0 9.7 0.00 0.00 0.00 57 1017.8
20260509234544 19 234 1.6 6.4 0.00 0.00 0.00 57 1017.8
20260509233046 19 34 3.2 8.0 0.00 0.00 0.00 54 1018.4
20260509231544 20 286 1.6 8.0 0.00 0.00 0.00 54 1018.5
20260509230038 19 344 3.2 14.5 0.00 0.00 0.00 55 1018.8
20260509224536 19 205 1.6 8.0 0.00 0.00 0.00 55 1019.1
20260509223042 20 329 1.6 9.7 0.00 0.00 0.00 57 1019.3
20260509221533 19 36 1.6 9.7 0.00 0.00 0.00 59 1019.5
20260509220031 19 355 1.6 8.0 0.00 0.00 0.00 59 1019.6
20260509214529 18 121 1.6 6.4 0.00 0.00 0.00 62 1019.6
20260509213028 19 338 3.2 14.5 0.00 0.00 0.00 57 1019.8
20260509211527 19 24 1.6 8.0 0.00 0.00 0.00 61 1020.0
20260509210036 18 342 1.6 8.0 0.00 0.00 0.00 62 1020.1
20260509204525 18 319 3.2 9.7 0.00 0.00 0.00 60 1019.9
20260509203025 18 24 4.8 8.0 0.00 0.00 0.00 59 1020.0
20260509201526 19 48 1.6 8.0 0.00 0.00 0.00 61 1020.1
20260509200023 18 196 3.2 12.9 0.00 0.00 0.00 59 1020.1
20260509194522 18 235 3.2 9.7 0.00 0.00 0.00 61 1020.4
20260509193018 19 12 1.6 4.8 0.00 0.00 0.00 61 1020.7
20260509191519 18 194 1.6 8.0 0.00 0.00 0.00 55 1020.8
20260509190017 18 40 4.8 9.7 0.00 0.00 0.00 51 1021.0
20260509184517 18 49 3.2 14.5 0.00 0.00 0.00 54 1021.0
20260509183012 18 67 0.0 8.0 0.00 0.00 0.00 57 1021.0
20260509181510 18 344 4.8 12.9 0.00 0.00 0.00 56 1021.4
20260509180006 17 43 3.2 8.0 0.00 0.00 0.00 60 1021.2
20260509174505 17 79 3.2 19.3 0.00 0.00 0.00 60 1021.2
20260509173120 16 15 8.0 16.1 0.00 0.00 0.00 61 1021.3
20260509171559 16 355 6.4 14.5 0.00 0.00 0.00 65 1021.4
20260509170107 16 360 3.2 9.7 0.00 0.00 0.00 65 1021.5
20260509164652 15 11 6.4 12.9 0.00 0.00 0.00 68 1021.5
20260509163050 15 13 3.2 14.5 0.00 0.00 0.00 68 1021.9
20260509161544 15 22 6.4 14.5 0.00 0.00 0.00 71 1022.1
20260509160043 14 350 4.8 14.5 0.00 0.00 0.00 73 1022.2
20260509154535 13 350 3.2 8.0 0.00 0.00 0.00 74 1022.3
20260509153034 13 323 1.6 8.0 0.00 0.00 0.00 76 1022.2
20260509151527 12 338 4.8 12.9 0.00 0.00 0.00 75 1022.4
20260509150024 12 345 1.6 6.4 0.00 0.00 0.00 79 1022.5
20260509144521 11 340 3.2 6.4 0.00 0.00 0.00 80 1022.5
20260509143020 11 355 3.2 6.4 0.00 0.00 0.00 80 1022.6
20260509141518 11 22 1.6 3.2 0.00 0.00 0.00 82 1022.7
20260509140015 11 128 1.6 4.8 0.00 0.00 0.00 83 1022.8
20260509134512 11 136 1.6 3.2 0.00 0.00 0.00 86 1022.8
20260509133010 10 136 0.0 1.6 0.00 0.00 0.00 86 1022.8
20260509131507 10 136 1.6 3.2 0.00 0.00 0.00 86 1022.7
20260509130018 10 136 0.0 0.0 0.00 0.00 0.00 86 1022.7
20260509124515 10 136 0.0 1.6 0.00 0.00 0.00 86 1022.7
20260509123004 10 136 0.0 1.6 0.00 0.00 0.00 85 1022.6
20260509121503 11 136 0.0 3.2 0.00 0.00 0.00 84 1022.7
20260509120007 11 136 0.0 3.2 0.00 0.00 0.00 84 1022.7
20260509114503 11 136 0.0 0.0 0.00 0.00 0.00 84 1022.7
20260509113004 11 136 0.0 1.6 0.00 0.00 0.00 84 1022.7
20260509111600 11 136 0.0 0.0 0.00 0.00 0.00 84 1022.7
20260509111501 11 136 0.0 0.0 0.00 0.00 0.00 83 1022.7
20260509110000 11 136 0.0 0.0 0.00 0.00 0.00 83 1022.6
20260509104600 11 136 0.0 3.2 0.00 0.00 0.00 83 1022.6
20260509103109 11 136 1.6 3.2 0.00 0.00 0.00 83 1022.7
20260509101604 11 136 0.0 1.6 0.00 0.00 0.00 83 1022.6
20260509100100 11 136 0.0 0.0 0.00 0.00 0.00 83 1022.6
20260509094602 10 136 0.0 0.0 0.00 0.00 0.00 83 1022.5
20260509093058 10 136 0.0 0.0 0.00 0.00 0.00 84 1022.4
20260509091556 10 136 0.0 0.0 0.00 0.00 0.00 85 1022.5
20260509084605 9 136 0.0 0.0 0.00 0.00 0.00 87 1022.6
20260509083054 9 136 0.0 0.0 0.00 0.00 0.00 86 1022.7
20260509081557 9 136 0.0 0.0 0.00 0.00 0.00 86 1022.7
20260509080057 9 136 0.0 0.0 0.00 0.00 0.00 84 1022.7
20260509074548 10 136 0.0 0.0 0.00 0.00 0.00 83 1022.6
20260509073047 10 136 0.0 1.6 0.00 0.00 0.00 82 1022.6
20260509071543 11 136 0.0 0.0 0.00 0.00 0.00 80 1022.5
20260509070037 11 136 0.0 1.6 0.00 0.00 0.00 79 1022.6
20260509064551 11 136 0.0 4.8 0.00 0.00 0.00 79 1022.5
20260509063038 11 134 0.0 4.8 0.00 0.00 0.00 79 1022.6
20260509061545 11 188 0.0 3.2 0.00 0.00 0.00 79 1022.6
20260509060038 11 188 0.0 1.6 0.00 0.00 0.00 78 1022.6
20260509054538 11 188 0.0 3.2 0.00 0.00 0.00 77 1022.5
20260509053036 11 169 0.0 4.8 0.00 0.00 0.00 77 1022.6
20260509051534 12 154 0.0 4.8 0.00 0.00 0.00 77 1022.5
20260509050035 12 189 1.6 4.8 0.00 0.00 0.00 76 1022.5
20260509044532 12 140 1.6 8.0 0.00 0.00 0.00 75 1022.5
20260509043032 12 185 1.6 8.0 0.00 0.00 0.00 76 1022.4
20260509041530 12 175 0.0 6.4 0.00 0.00 0.00 76 1022.2
20260509040037 12 165 1.6 8.0 0.00 0.00 0.00 76 1022.2
20260509034529 12 167 1.6 4.8 0.00 0.00 0.00 76 1022.0
20260509033027 12 145 1.6 8.0 0.00 0.00 0.00 77 1021.8
20260509031528 12 178 1.6 6.4 0.00 0.00 0.00 76 1021.7
20260509030024 12 171 0.0 4.8 0.00 0.00 0.00 75 1021.8
20260509024525 12 155 1.6 8.0 0.00 0.00 0.00 75 1021.6
20260509023025 12 117 1.6 6.4 0.00 0.00 0.00 74 1021.6